STARLINK-1227, 45230

Orbit data source: Space-Track

STARLINK-1227, 45230 is a payload satellite owned by SpaceX/Seattle (US) in LEO that was launched on Mon, 17 Feb 2020 UTC via an FALCON 9 launch vehicle from the Air Force Eastern Test Range (AFETR). Payload-class satellites include a variety of spacecraft equipped with specific instruments for various scientific and technological missions. These include communications satellites like Starlink; space stations such as the ISS; scientific satellites like the Hubble; Earth observation satellites from companies like Planet Labs, Umbra, and HawkEye 360; GPS; miniature CubeSats for education and research; and military/defense satellites.

Loading next visibility...
Identifier
45230, 2020-012BE
Orbit
LEO
Country
Flag of USUS
Related business
Manufacturer
SpaceX/Seattle
Mission
Partially operational Commercial Communications
Bus & Motor
STARLINK, Unknown motor
Mass
260 kg wet, ~248 kg dry
Launch date (UTC)
2020-02-17 (7 years ago)
Launch vehicle
FALCON 9
Launch site
Air Force Eastern Test Range (AFETR)
Object type
Payload
Rocket body
Debris
Shape & HBR
Box + 1 Pan, 10.1 m
Radar Cross Section
13.562 m², Large (>1 m²)

Expand to show TLE details & history
Last TLE update: 2 days ago

TLE from 2 days ago
0 STARLINK-1227
1 45230U 20012BE  26252.59521817  .00059387  00000-0  88772-3 0  9991
2 45230  53.1535 206.3109 0002652 103.4933 256.6374 15.54468490363941
Epoch: 2026-09-09T14:17Z
TLE epoch observation values (Epoch: 2026-09-09T14:17:06.849Z)
Latitude
-0.00003°
Longitude
3.38732°
Altitude
405.023 km
Speed
7.669 km/s
True Right ascension
13h 45m 14s
True Declination
0° 00' 00"
Sunlit
Object was in daylight at epoch
Visualization orbit readout
Latitude
Unknown
Longitude
Unknown
Altitude
Unknown
Speed
Unknown
Apparent Right ascension
Unknown
Apparent Declination
Unknown
Sunlit
N/A
Visualization observer readout
Local Sidereal Time
22:31:08
Azimuth
Unknown
Elevation
Unknown
Doppler factor
Unknown
Orbital elements
Apogee altitude
405.757 km
Perigee altitude
402.16 km
Semi-major axis
6,782.095 km
Eccentricity
0.00027
Inclination
53.1535°
RAAN
206.3109°
Arg. of periapsis
103.4933°
True anomaly
256.60784°
Mean anomaly
256.6374°
Eccentric anomaly
256.62262°
Mean motion
3.88595 °/min
Orbital period
92.64 mins
BSTAR
0.00088772
Loading maneuver chart data...
Computing Atmospheric mass density...

Documentation

Showing up to 5 results
|